Regional Weather Roundup
Issued by NWS

Home | Current Version | Previous Version | Text Only | Print | Product List | Glossary On
Versions: 1 2 3 4 5 6 7 8 9 10 11 12 13 14 15 16 17 18 19 20 21 22 23 24 25 26 27 28 29 30 31 32 33 34 35 36 37 38 39 40 41 42 43 44 45 46 47 48 49 50
000
ASUS45 KBOU 190110
RWRCO

WEATHER ROUNDUP FOR COLORADO
NATIONAL WEATHER SERVICE DENVER/BOULDER CO
600 PM MST THU JAN 18 2018

NOTE: "FAIR" INDICATES FEW OR NO CLOUDS BELOW 12000 FEET WITH NO
SIGNIFICANT WEATHER AND/OR OBSTRUCTIONS TO VISIBILITY.

COZ001>005-013-030-031-190200-
...NORTHWEST COLORADO...

CITY           SKY/WX    TMP DP  RH WIND       PRES   REMARKS
CRAIG          FAIR      35  18  49 E7        30.14F WCI  29
HAYDEN         FAIR     N/A N/A N/A SE12      30.16F
MEEKER         FAIR      35  24  64 CALM      30.14S
RABBIT EARS PA FAIR      30  14  51 SW10      30.23S WCI  21
STEAMBOAT SPGS FAIR      28  17  65 CALM      30.16S
WALDEN         FAIR      30  14  51 SE7       30.17S WCI  23
$$

COZ006>008-011-190200-
...WEST CENTRAL VALLEYS...

CITY           SKY/WX    TMP DP  RH WIND       PRES   REMARKS
GRAND JUNCTION FAIR      38  18  44 N7        30.18F
MONTROSE       FAIR      39  16  39 NW3       30.19F
EAGLE          FAIR      32  15  49 E3        30.22F
RIFLE          FAIR      35  21  56 SW6       30.19S WCI  30
DELTA          FAIR      43  15  32 CALM      30.18S
NUCLA          FAIR      43  16  33 CALM      30.21S
$$

COZ017>023-064>068-190200-
...SOUTHWEST COLORADO...

CITY           SKY/WX    TMP DP  RH WIND       PRES   REMARKS
DURANGO        FAIR      38  19  46 W5        30.20S
CORTEZ         FAIR      31  17  56 CALM      30.20S
PAGOSA SPRINGS FAIR      33  16  50 SE3       30.22F
TELLURIDE      FAIR      38  13  35 CALM      30.26R
WOLF CREEK PAS FAIR      32   5  32 SW5       30.37S WCI  27
$$

COZ009-010-012-014-032>034-037-058>063-190200-
...CENTRAL COLORADO...

CITY           SKY/WX    TMP DP  RH WIND       PRES   REMARKS
ASPEN          FAIR      30  15  53 SW7       30.19S WCI  23
BUENA VISTA    FAIR      33   2  27 W3        30.15R
COPPER MTN     NOT AVBL
BERTHOUD PASS  FAIR      27  14  59 NW17      30.30S WCI  14
COTTONWOOD PAS   N/A     45   9  23 W8        30.22S
GUNNISON       FAIR      26  14  60 CALM      30.24S
KREMMLING      FAIR      27  14  59 CALM      30.23F
LEADVILLE      FAIR      25   8  48 NE5       30.22S WCI  19
MONARCH PASS   FAIR      23   3  42 SW24      30.39F WCI   7
SALIDA         FAIR      46   4  18 SW14G23   30.20S
SUNLIGHT       FAIR      28   9  43 S8        30.30F WCI  20
WILKERSON PASS FAIR      37  -6  15 W5        30.28S
$$

COZ069>075-190200-
...SAN LUIS VALLEY/SANGRE DE CRISTO MOUNTAINS...

CITY           SKY/WX    TMP DP  RH WIND       PRES   REMARKS
ALAMOSA        FAIR      33   0  24 W5        30.19R WCI  29
DEL NORTE      FAIR      30  -1  27 CALM      30.21S
LA VETA PASS   FAIR      32   5  32 SW25G32     N/A  WCI  19
SAGUACHE       FAIR      27   3  36 NE3       30.21S
$$

COZ035-036-038>040-190200-
...NORTHERN COLORADO FRONT RANGE...

CITY           SKY/WX    TMP DP  RH WIND       PRES   REMARKS
DENVER INTL AP MOCLDY    49  12  22 SE9       29.97F
DMNS CITY PARK NOT AVBL
AURORA         MOCLDY    48   9  20 SE12      29.98F
FRONT RANGE AP MOCLDY    45  18  33 S7        29.98F
ERIE MUNI ARPT FAIR      40  22  48 S5        30.01F
BOULDER MUN AP FAIR      50  21  32 CALM      29.96S
CENTENNIAL     MOCLDY    52   5  15 SE7       29.99F
BROOMFIELD     MOCLDY    54  16  22 CALM      29.99S
FORT COLLINS   FAIR      45  22  40 S3        29.96F
LONGMONT       FAIR      40  20  46 W5        29.98S
$$

COZ041-046-047-076>085-087-088-190200-
...PIKES PEAK/PALMER DIVIDE AND SOUTHERN FOOTHILLS...

CITY           SKY/WX    TMP DP  RH WIND       PRES   REMARKS
COLO. SPRINGS  MOCLDY    48   9  20 SE3       30.06R
A. F. ACADEMY  FAIR      36   6  28 N9        30.05S
SCHRIEVER AFB  FAIR      37   7  28 CALM      30.05S
CHEYENNE MTN   FAIR      45   6  19 S5        30.01F
ELLICOTT         N/A    N/A N/A N/A SW5       30.04S
FALCON         FAIR      34   4  27 W3        30.07F
FORT CARSON    FAIR      49   9  19 CALM      30.03S
LIMON          FAIR      35   9  33 NW3       30.01S
MONUMENT HILL  FAIR      36   9  32 S7        30.07F
CANON CITY     FAIR      54  12  19 E3        30.01S
WALSENBURG     FAIR      50   7  17 SW9       30.05R
TRINIDAD       FAIR      43   8  23 SW10      30.04R
$$

COZ042>045-048>051-090-091-190200-
...NORTHEAST COLORADO...

CITY           SKY/WX    TMP DP  RH WIND       PRES   REMARKS
GREELEY ARPT   FAIR      39  20  46 CALM      29.96S
AKRON          FAIR      47  20  34 SW8       29.95F
BURLINGTON     FAIR      39  13  34 SW10      29.98S
WRAY           FAIR      46  19  34 S6        29.93F
YUMA           FAIR      43  14  31 S6        29.93F
STERLING       FAIR      37  21  52 SW5       29.91F
HOLYOKE        FAIR      41  23  48 SW3       29.92S
FORT MORGAN    FAIR      46  14  27 W5        29.96R
$$

COZ086-089-092>099-190200-
...SOUTHEAST COLORADO...

CITY           SKY/WX    TMP DP  RH WIND       PRES   REMARKS
PUEBLO         FAIR      49  11  21 NE9       29.99R
LA JUNTA       FAIR      51  10  19 CALM      29.99R
LAMAR          FAIR      34   8  33 SE5       29.97S WCI  30
SPRINGFIELD      N/A     39   1  20 SW8       30.00S
$$



USA.gov is the U.S. government's official web portal to all federal, state and local government web resources and services.